Regional Weather Roundup
Issued by NWS

Home | Current Version | Previous Version | Text Only | Print | Product List | Glossary On
Versions: 1 2 3 4 5 6 7 8 9 10 11 12 13 14 15 16 17 18 19 20 21 22 23 24 25 26 27 28 29 30 31 32 33 34 35 36 37 38 39 40 41 42 43 44 45 46 47 48 49 50
000
ASUS43 KTOP 010759
RWRKS

WEATHER ROUNDUP FOR KANSAS
NATIONAL WEATHER SERVICE GOODLAND KS
200 AM CST SUN MAR 01 2015

NOTE:  "FAIR" INDICATES FEW OR NO CLOUDS BELOW 12,000 FEET WITH NO
SIGNIFICANT WEATHER AND/OR OBSTRUCTIONS TO VISIBILITY.

KSZ001>006-013>018-027>032-041>047-010900-
NORTHWEST KANSAS

CITY           SKY/WX    TMP DP  RH WIND       PRES   REMARKS
GOODLAND       CLOUDY    19  17  92 S8        30.14R
HAYS           PTCLDY    16   7  67 CALM      30.26F
HILL CITY      CLOUDY    20  15  81 E3        30.25F
RUSSELL        MOCLDY    18  15  88 S5        30.28S
$$

KSZ061>065-074>080-084>089-010900-
SOUTHWEST KANSAS

CITY           SKY/WX    TMP DP  RH WIND       PRES   REMARKS
DODGE CITY     CLOUDY    19  16  88 SE6       30.22F FOG
ELKHART          N/A     22  19  89 SE7         N/A
GARDEN CITY    CLOUDY    19  17  92 SE7       30.19S FOG
GREAT BEND     CLOUDY    19  12  73 CALM      30.29S
LIBERAL        CLOUDY    21  18  86 SE7       30.20R
$$

KSZ066>073-081>083-090>101-010900-
SOUTHEAST KANSAS

CITY           SKY/WX    TMP DP  RH WIND       PRES   REMARKS
CHANUTE        CLOUDY    23  22  96 MISG      30.35S FOG
COFFEYVILLE    CLOUDY    25  24  96 NW5       30.36S FOG
HUTCHINSON     CLOUDY    22  17  81 CALM      30.31F
MEDICINE LODGE   N/A     21  21 100 CALM      30.31S
NEWTON         CLOUDY    19  14  79 CALM      30.34R
PARSONS        CLOUDY    25  23  92 N3        30.36S
WICHITA INTL   FOG       22  21  96 CALM      30.33S VSB 1
WICHITA JABRA  CLOUDY    21  19  92 CALM      30.33S
WINFIELD       CLOUDY    23  22  96 N3        30.34S FOG
$$

KSZ007>012-019>026-033>040-048>060-102>105-010900-
NORTHEAST KANSAS

CITY           SKY/WX    TMP DP  RH WIND       PRES   REMARKS
CONCORDIA      CLOUDY    20  17  88 CALM      30.32S
EMPORIA        CLOUDY    21  19  92 CALM      30.34R
LAWRENCE       CLOUDY    22  19  89 CALM      30.37S
MANHATTAN      PTCLDY    20  17  88 CALM      30.36S
OLATHE IND     CLOUDY    22  19  89 CALM      30.35F
OLATHE EXE     CLOUDY    22  20  92 CALM      30.33F
SALINA         MOCLDY    19  16  88 CALM      30.35R
TOPEKA BILLARD CLOUDY    23  18  81 CALM      30.37R
TOPEKA FORBES  CLOUDY    23  19  85 CALM      30.35R
$$


USA.gov is the U.S. government's official web portal to all federal, state and local government web resources and services.